This demonstration page uses our WeatherBlox Daily Observations layout. Learn more.

Left ArrowRight Arrow

39.95238, -75.16362

Hourly Observations for August 3, 2016

Temp ( °F °C ) Dew Point ( °F °C ) Humidity (%) Winds ( mph kmh ) Pressure ( in mb ) Visibility ( mi km ) Precip ( " mm )
12:54 am 00:54 Mostly Clear 69 20.6 63 17.2 81 81 NE 6 9 30.14 1021 10 16 0.00 0.00
1:54 am 01:54 Mostly Clear 68 20 63 17.2 84 84 NNE 5 7 30.13 1020 10 16 0.00 0.00
2:54 am 02:54 Mostly Clear 67 19.4 62 16.7 84 84 NE 6 9 30.12 1020 10 16 0.00 0.00
3:54 am 03:54 Clear 67 19.4 61 16.1 81 81 NE 5 7 30.12 1020 10 16 0.00 0.00
4:54 am 04:54 Clear 67 19.4 61 16.1 81 81 NE 3 6 30.12 1020 10 16 0.00 0.00
5:54 am 05:54 Clear 68 20 61 16.1 78 78 NE 6 9 30.14 1021 10 16 0.00 0.00
6:54 am 06:54 Mostly Sunny 68 20 62 16.7 81 81 N 6 9 30.15 1021 10 16 0.00 0.00
7:54 am 07:54 Mostly Sunny 71 21.7 63 17.2 76 76 ENE 6 9 30.16 1021 10 16 0.00 0.00
8:54 am 08:54 Mostly Sunny 74 23.3 62 16.7 67 67 ENE 9 15 30.17 1022 10 16 0.00 0.00
9:54 am 09:54 Mostly Sunny 76 24.4 61 16.1 60 60 E 9 15 30.17 1022 10 16 0.00 0.00
10:54 am 10:54 Partly Cloudy 78 25.6 60 15.6 54 54 E 7 11 30.18 1022 10 16 0.00 0.00
11:54 am 11:54 Mostly Sunny 80 26.7 60 15.6 51 51 E 8 13 30.17 1022 10 16 0.00 0.00
12:54 pm 12:54 Mostly Sunny 81 27.2 60 15.6 49 49 ENE 8 13 30.16 1021 10 16 0.00 0.00
1:54 pm 13:54 Mostly Sunny 82 27.8 61 16.1 49 49 E 10 17 30.15 1021 10 16 0.00 0.00
2:54 pm 14:54 Mostly Sunny 83 28.3 60 15.6 46 46 E 9 15 30.14 1021 10 16 0.00 0.00
3:54 pm 15:54 Mostly Sunny 84 28.9 60 15.6 44 44 ESE 9 15 30.12 1020 10 16 0.00 0.00
4:54 pm 16:54 Partly Cloudy 83 28.3 61 16.1 48 48 E 8 13 30.11 1020 10 16 0.00 0.00
5:54 pm 17:54 Partly Cloudy 82 27.8 62 16.7 51 51 ESE 8 13 30.11 1020 10 16 0.00 0.00
6:54 pm 18:54 Mostly Cloudy 79 26.1 62 16.7 56 56 ESE 8 13 30.12 1020 10 16 0.00 0.00
7:54 pm 19:54 Mostly Cloudy 76 24.4 62 16.7 62 62 ESE 8 13 30.13 1020 10 16 0.00 0.00
8:54 pm 20:54 Partly Cloudy 74 23.3 61 16.1 64 64 ESE 12 19 30.14 1021 10 16 0.00 0.00
9:54 pm 21:54 Mostly Clear 72 22.2 60 15.6 66 66 ESE 6 9 30.15 1021 10 16 0.00 0.00
10:54 pm 22:54 Mostly Clear 71 21.7 60 15.6 68 68 SE 3 6 30.16 1021 10 16 0.00 0.00
11:54 pm 23:54 Clear 70 21.1 61 16.1 73 73 E 5 7 30.16 1021 10 16 0.00 0.00

Powered by AerisWeather